Orbital Elements at Epoch 2459200.5 (2020-Dec-17.0) TDB
Reference: JPL 26 (heliocentric ecliptic J2000)
Element | Value | Uncertainty (1-sigma) | Units |
e | .2541403518829575 | 2.9483e-08 | |
a | 2.571760685940407 | 1.1471e-08 | au |
q | 1.918172520256756 | 7.2942e-08 | au |
i | 3.31755118551743 | 4.8483e-06 | deg |
node | 213.6494285976385 | 6.447e-05 | deg |
peri | 112.8445892407109 | 6.5716e-05 | deg |
M | 150.8867004185994 | 1.503e-05 | deg |
tp | 2458569.117242978205 (2019-Mar-26.61724298) | 6.0044e-05 | TDB |
period | 1506.413699134928 4.12 | 1.0079e-05 2.759e-08 | d yr |
n | .2389781772475472 | 1.5989e-09 | deg/d |
Q | 3.225348851624059 | 1.4387e-08 | au |
|
| | Orbit Determination Parameters
Additional Information
|